Change the Weather History Date:

Tuesday, October 2, 2012

  Actual Average Record
Temperature  
Mean Temperature 84 °F -  
Max Temperature 99 °F 93 °F 102 °F (2008)
Min Temperature 68 °F 67 °F 57 °F (2013)
Cooling Degree Days 18    
Growing Degree Days 34 (Base 50)    
Moisture  
Dew Point 58 °F    
Average Humidity 40    
Maximum Humidity 53    
Minimum Humidity 27    
Precipitation  
Precipitation 0.00 in - - ()
Sea Level Pressure  
Sea Level Pressure 30.10 in    
Wind  
Wind Speed 9 mph ()    
Max Wind Speed 15 mph    
Max Gust Speed -    
Visibility 6.1 miles    
Events      
Averages and records for this station are not official NWS values.
T = Trace of Precipitation, MM = Missing Value Source: Averaged Metar Reports

Daily Weather History Graph

Daily Weather History Graph

Search for Another Location

Airport or City:

Trip Planner

Search our weather history database for the weather conditions in past years. The results will help you decide how hot, cold, wet, or windy it might be!

Date:

Astronomy

Oct. 02, 2012 Rise Set
Actual Time 6:06 AM CAT 6:24 PM CAT
Civil Twilight 5:44 AM CAT 6:46 PM CAT
Nautical Twilight 5:18 AM CAT 7:12 PM CAT
Astronomical Twilight 4:52 AM CAT 7:38 PM CAT
Moon 8:29 PM CAT (10/2) 7:18 AM CAT (10/2)
Length of Visible Light 13h 02m
Length of Day
12h 18m
Waning Gibbous, 95% of the Moon is Illuminated
Oct 2
Waning Gibbous
Oct 8
Last Quarter
Oct 15
New
Oct 22
First Quarter
Oct 29
Full

Hourly Weather History & Observations

Time (CAT) Temp. Heat Index Dew Point Humidity Pressure Visibility Wind Dir Wind Speed Gust Speed Precip Events Conditions
12:00 AM 77.0 °F - 55.4 °F 47% 30.12 in - SE 8.1 mph - N/A   Clear
1:00 AM 78.8 °F - 55.4 °F 44% 30.12 in - ESE 13.8 mph - N/A   Clear
2:00 AM 77 °F - 54 °F 35%  in 6 mi SE 13.8 mph - -  
3:00 AM 75.2 °F - 53.6 °F 47% 30.12 in - ESE 13.8 mph - N/A   Clear
4:00 AM 73.4 °F - 53.6 °F 50% 30.12 in - ESE 15.0 mph - N/A   Clear
5:00 AM 73.4 °F - 53.6 °F 50% 30.12 in - ESE 13.8 mph - N/A   Clear
6:00 AM 71.6 °F - 53.6 °F 53% 30.12 in - ESE 10.4 mph - N/A   Clear
7:00 AM 71.6 °F - 53.6 °F 53% 30.15 in - East 11.5 mph - N/A   Clear
8:00 AM 75 °F - 56 °F 41%  in 6 mi East 11.5 mph - -  
8:00 AM 75.2 °F - 55.4 °F 50% 30.18 in - East 11.5 mph - N/A   Clear
9:00 AM 80.6 °F 81.1 °F 59.0 °F 48% 30.18 in - East 10.4 mph - N/A   Clear
10:00 AM 86.0 °F 86.6 °F 62.6 °F 45% 30.18 in - East 11.5 mph - N/A   Clear
11:00 AM 87.8 °F 88.5 °F 62.6 °F 43% 30.15 in - NE 8.1 mph - N/A   Clear
12:00 PM 91.4 °F 92.1 °F 62.6 °F 38% 30.12 in - ENE 10.4 mph - N/A   Clear
1:00 PM 93.2 °F 94.9 °F 64.4 °F 38% 30.09 in 6.2 mi SE 4.6 mph - N/A   Partly Cloudy
2:00 PM 96.8 °F 100.7 °F 66.2 °F 37% 30.06 in 6.2 mi NE 8.1 mph - N/A   Partly Cloudy
3:00 PM 98.6 °F 100.0 °F 62.6 °F 30% 30.04 in 6.2 mi SSE 9.2 mph - N/A   Partly Cloudy
4:00 PM 98.6 °F 100.0 °F 62.6 °F 30% 30.01 in 6.2 mi South 6.9 mph - N/A   Partly Cloudy
5:00 PM 96.8 °F 97.1 °F 60.8 °F 30% 30.01 in 6.2 mi SSE 5.8 mph - N/A   Partly Cloudy
6:00 PM 95.0 °F 95.2 °F 60.8 °F 32% 30.01 in 6.2 mi SSE 4.6 mph - N/A   Partly Cloudy
7:00 PM 91.4 °F 90.7 °F 59.0 °F 34% 30.04 in - SE 6.9 mph - N/A   Clear
8:00 PM 87 °F - 58 °F 27%  in 6 mi SE 9.2 mph - -  
8:00 PM 87.8 °F 86.5 °F 57.2 °F 35% 30.06 in - SE 9.2 mph - N/A   Clear
9:00 PM 86.0 °F 84.9 °F 57.2 °F 37% 30.06 in - ESE 11.5 mph - N/A   Clear
10:00 PM 86.0 °F 84.5 °F 55.4 °F 35% 30.09 in - ESE 12.7 mph - N/A   Clear
11:00 PM 82.4 °F 81.7 °F 55.4 °F 39% 30.09 in - SE 9.2 mph - N/A   Clear